Location: Auckland
(36.8670°S, 174.7670°E)
Time: 05:57:08
(UTC+12:00)

A-11 Canister half - Pass Details

Date: 22 July 2019
Orbit: 1526 x 1683 km, 47.3° (Epoch: 23 August)

Event Time Altitude Azimuth Distance (km) Brightness Sun altitude
Rises 15:20:13 0° 238° (WSW) 4,828 11.8 19.8°
Reaches altitude 10° 15:23:19 10° 240° (WSW) 3,860 11.3 19.3°
Maximum altitude 15:33:06 67° 319° (NW) 1,771 10.1 18.0°
Drops below altitude 10° 15:43:05 10° 39° (NE) 3,933 11.2 16.5°
Sets 15:46:17 0° 42° (NE) 4,923 11.7 16.1°
